Spencer, IA

6:12 PM CDT on April 28, 2017 (GMT -0500)
Spencer Municipal

Weather History for KSPW - April, 2014

Change the Weather History Date:

Friday, April 4, 2014

  Actual Average Record
Temperature  
Mean Temperature 32 °F -  
Max Temperature 37 °F 49 °F 82 °F (2005)
Min Temperature 26 °F 28 °F 10 °F (2002)
Degree Days  
Heating Degree Days 32    
Moisture  
Dew Point 27 °F    
Average Humidity 83    
Maximum Humidity 93    
Minimum Humidity 67    
Precipitation  
Precipitation 0.20 in - - ()
Sea Level Pressure  
Sea Level Pressure 29.93 in    
Wind  
Wind Speed 21 mph (NW)    
Max Wind Speed 31 mph    
Max Gust Speed 43 mph    
Visibility 6 miles    
Events Rain , Snow    
Averages and records for this station are not official NWS values.
T = Trace of Precipitation, MM = Missing Value Source: NWS Daily Summary

Daily Weather History Graph

Daily Weather History Graph

Search for Another Location

Airport or City:

Trip Planner

Search our weather history database for the weather conditions in past years. The results will help you decide how hot, cold, wet, or windy it might be!

Date:

Astronomy

Apr. 04, 2014 Rise Set
Actual Time 6:57 AM CDT 7:50 PM CDT
Civil Twilight 6:28 AM CDT 8:19 PM CDT
Nautical Twilight 5:54 AM CDT 8:54 PM CDT
Astronomical Twilight 5:18 AM CDT 9:30 PM CDT
Moon 10:09 AM CDT (4/4) 12:15 AM CDT (4/4)
Length of Visible Light 13h 51m
Length of Day
12h 53m
Waxing Crescent, 25% of the Moon is Illuminated
Apr 4
Waxing Crescent
Apr 7
First Quarter
Apr 15
Full
Apr 22
Last Quarter
Apr 29
New

Hourly Weather History & Observations

Time (CDT) Temp. Windchill Dew Point Humidity Pressure Visibility Wind Dir Wind Speed Gust Speed Precip Events Conditions
12:03 AM 30.0 °F 17.5 °F 27.0 °F 88% 29.72 in 1.8 mi North 19.6 mph - 0.00 in Snow Light Snow
12:53 AM 28.9 °F 15.4 °F 27.0 °F 92% 29.76 in 0.8 mi North 21.9 mph - 0.05 in Snow Light Snow
1:02 AM 28.9 °F 15.8 °F 27.0 °F 92% 29.72 in 0.8 mi NNW 20.7 mph - 0.01 in Snow Light Snow
1:53 AM 28.9 °F 16.1 °F 26.1 °F 89% 29.79 in 0.8 mi NNW 19.6 mph - 0.09 in Snow Light Snow
2:53 AM 28.0 °F 14.3 °F 25.0 °F 88% 29.81 in 1.0 mi NNW 21.9 mph - 0.03 in Snow Light Snow
3:01 AM 28.0 °F 14.3 °F 25.0 °F 88% 29.77 in 0.8 mi NNW 21.9 mph 29.9 mph 0.01 in Snow Light Snow
3:39 AM 28.0 °F 13.6 °F 25.0 °F 88% 29.77 in 1.0 mi NNW 24.2 mph - 0.02 in Snow Light Snow
3:51 AM 28.4 °F 14.7 °F 26.6 °F 93% 29.77 in 0.8 mi NW 21.9 mph - 0.03 in Snow Light Snow
3:53 AM 28.0 °F 13.9 °F 26.1 °F 92% 29.82 in 0.8 mi NNW 23.0 mph - 0.03 in Snow Light Snow
4:13 AM 28.0 °F 13.9 °F 26.1 °F 92% 29.78 in 1.2 mi NNW 23.0 mph 32.2 mph 0.00 in   Overcast
4:30 AM 28.9 °F 15.4 °F 26.1 °F 89% 29.78 in 2.0 mi NW 21.9 mph - N/A   Overcast
4:38 AM 28.9 °F 15.4 °F 26.1 °F 89% 29.78 in 1.8 mi NW 21.9 mph 26.5 mph N/A   Overcast
4:53 AM 28.9 °F 14.8 °F 26.1 °F 89% 29.83 in 1.8 mi NNW 24.2 mph 31.1 mph N/A   Overcast
5:15 AM 28.9 °F 15.1 °F 26.1 °F 89% 29.79 in 2.5 mi NNW 23.0 mph - N/A   Overcast
5:21 AM 28.9 °F 15.4 °F 26.1 °F 89% 29.79 in 4.0 mi NNW 21.9 mph - N/A   Overcast
5:53 AM 30.0 °F 17.2 °F 27.0 °F 88% 29.84 in 5.0 mi NW 20.7 mph 31.1 mph N/A   Overcast
6:53 AM 30.0 °F 16.0 °F 28.0 °F 92% 29.86 in 5.0 mi NNW 25.3 mph 34.5 mph N/A   Overcast
7:46 AM 30.9 °F 15.9 °F 28.0 °F 89% 29.85 in 3.0 mi NNW 31.1 mph 42.6 mph N/A   Overcast
7:53 AM 32.0 °F 17.9 °F 28.0 °F 85% 29.89 in 5.0 mi NNW 28.8 mph 36.8 mph N/A   Overcast
8:29 AM 32.0 °F 17.9 °F 28.0 °F 85% 29.87 in 5.0 mi NNW 28.8 mph 34.5 mph N/A   Overcast
8:53 AM 32.0 °F 18.1 °F 28.0 °F 85% 29.92 in 4.0 mi NNW 27.6 mph 33.4 mph N/A   Overcast
9:53 AM 33.1 °F 20.1 °F 27.0 °F 78% 29.95 in 5.0 mi NNW 25.3 mph 35.7 mph 0.00 in   Overcast
10:53 AM 34.0 °F 20.8 °F 28.0 °F 79% 29.97 in 7.0 mi NNW 27.6 mph 34.5 mph 0.00 in Rain Light Rain
11:53 AM 34.0 °F 21.5 °F 27.0 °F 75% 29.99 in 10.0 mi NNW 24.2 mph - 0.00 in   Clear
12:26 PM 35.1 °F 23.5 °F 28.0 °F 76% 29.97 in 10.0 mi NW 21.9 mph 27.6 mph N/A   Mostly Cloudy
12:53 PM 35.1 °F 24.1 °F 28.0 °F 76% 30.03 in 10.0 mi NW 19.6 mph 25.3 mph N/A   Mostly Cloudy
1:04 PM 35.1 °F 23.5 °F 27.0 °F 72% 29.98 in 10.0 mi NW 21.9 mph 29.9 mph N/A   Partly Cloudy
1:53 PM 36.0 °F 25.6 °F 28.0 °F 73% 30.04 in 10.0 mi NW 18.4 mph 28.8 mph N/A   Partly Cloudy
2:53 PM 37.0 °F 27.0 °F 28.0 °F 70% 30.05 in 10.0 mi NNW 18.4 mph 26.5 mph N/A   Scattered Clouds
3:20 PM 37.0 °F 26.4 °F 27.0 °F 67% 30.01 in 10.0 mi NNW 20.7 mph - N/A   Mostly Cloudy
3:36 PM 37.0 °F 25.9 °F 28.0 °F 70% 30.01 in 10.0 mi NNW 23.0 mph - N/A   Scattered Clouds
3:43 PM 37.0 °F 26.2 °F 27.0 °F 67% 30.02 in 10.0 mi NNW 21.9 mph - N/A   Mostly Cloudy
3:53 PM 37.0 °F 26.2 °F 27.0 °F 67% 30.06 in 10.0 mi NNW 21.9 mph - N/A   Scattered Clouds
4:53 PM 37.9 °F 28.5 °F 28.9 °F 70% 30.07 in 10.0 mi NNW 17.3 mph - N/A   Partly Cloudy
5:53 PM 36.0 °F 29.6 °F 28.0 °F 73% 30.09 in 10.0 mi NW 8.1 mph - N/A   Partly Cloudy
6:33 PM 35.1 °F 28.6 °F 28.9 °F 78% 30.05 in 10.0 mi WNW 8.1 mph - N/A   Overcast
6:53 PM 35.1 °F 29.3 °F 30.0 °F 82% 30.10 in 10.0 mi WNW 6.9 mph - N/A   Overcast
7:53 PM 35.1 °F 27.9 °F 28.9 °F 78% 30.11 in 10.0 mi NW 9.2 mph - N/A   Overcast
8:53 PM 35.1 °F 29.3 °F 28.9 °F 78% 30.12 in 10.0 mi NW 6.9 mph - N/A   Overcast
9:43 PM 32.0 °F 24.8 °F 28.0 °F 85% 30.09 in 10.0 mi West 8.1 mph - N/A   Scattered Clouds
9:53 PM 32.0 °F 26.4 °F 28.0 °F 85% 30.14 in 10.0 mi WNW 5.8 mph - N/A   Clear
10:53 PM 28.9 °F 22.8 °F 26.1 °F 89% 30.14 in 10.0 mi WNW 5.8 mph - N/A   Clear
11:53 PM 26.1 °F 18.4 °F 24.1 °F 92% 30.16 in 10.0 mi WSW 6.9 mph - N/A   Clear